Regional Weather Roundup
Issued by NWS Kansas City/Pleasant Hill, MO

Home | Current Version | Previous Version | Graphics & Text | Print | Product List | Glossary Off
Versions: 1 2 3 4 5 6 7 8 9 10 11 12 13 14 15 16 17 18 19 20 21 22 23 24 25 26 27

000
ASUS43 KEAX 240610
RWREAX

WEATHER ROUNDUP FOR EASTERN KANSAS AND NORTHWEST MISSOURI
NATIONAL WEATHER SERVICE KANSAS CITY/PLEASANT HILL MO
100 AM CDT SUN SEP 24 2017

KSZ040-057-103>105-MOZ028-029-037-043-240700-
...KANSAS CITY METROPOLITAN AREA...

CITY           SKY/WX    TMP DP  RH WIND       PRES   REMARKS
K.C. INTL      CLEAR     72  67  84 SE8       29.95F
6HR MIN TEMP:  72; 6HR MAX TEMP:  81;

K.C. DOWNTOWN  CLEAR     79  69  71 SE6       29.93F
6HR MIN TEMP:  79; 6HR MAX TEMP:  88;

LEES SUMMIT    CLEAR     75  68  78 SE6       29.96F
6HR MIN TEMP:  75; 6HR MAX TEMP:  84;

OLATHE - IXD   CLEAR     74  66  76 SE7       29.95F
6HR MIN TEMP:  73; 6HR MAX TEMP:  83;

OLATHE - OJC   CLEAR     73  68  84 SE6       29.95F
6HR MIN TEMP:  72; 6HR MAX TEMP:  81;

LAWRENCE       CLEAR     69  67  93 E3        29.93F

$$

MOZ001>008-011>017-020>025-030>033-038>040-044>046-053-054-240700-
...NORTHERN AND CENTRAL MISSOURI...

CITY           SKY/WX    TMP DP  RH WIND       PRES   REMARKS
ST. JOSEPH     CLEAR     67  66  97 CALM      29.94S
6HR MIN TEMP:  67; 6HR MAX TEMP:  84;

MOSBY          CLEAR     68  68 100 CALM      29.96S
WARRENSBURG    CLEAR     72  64  78 SE3       29.95F
WHITEMAN AFB   CLEAR     73  73 100 SE7       29.96S
6HR MIN TEMP:  72; 6HR MAX TEMP:  82; 6HR PCP: TRACE;

CLINTON        CLEAR     72  70  94 SE5       29.97S
SEDALIA        CLEAR     72  69  90 SE6       29.99R
6HR MIN TEMP:  72; 6HR MAX TEMP:  83;

WARSAW         NOT AVBL
CHILLICOTHE      N/A     70  67  90 CALM      29.98S
6HR MIN TEMP:  69; 6HR MAX TEMP:  85;

KIRKSVILLE     CLEAR     71  62  73 SE7       30.00F
6HR MIN TEMP:  70; 6HR MAX TEMP:  81;


$$

MOZ041-047>049-056>058-063>065-088>090-097-240700-
...EASTERN AND SOUTHERN MISSOURI...

CITY           SKY/WX    TMP DP  RH WIND       PRES   REMARKS
ST. LOUIS INTL CLEAR     79  62  56 SE7       30.02S
6HR MIN TEMP:  76; 6HR MAX TEMP:  85;

SPIRIT OF STL  CLEAR     68  66  93 CALM      29.99F
COLUMBIA       CLEAR     75  64  68 SE6       30.00S
JEFFERSON CITY CLEAR     73  63  70 SE3       29.98S
ROLLA          CLEAR     73  63  70 SE8       30.02S
OSAGE BEACH    CLEAR     71  65  81 CALM      30.00S
SPRINGFIELD    CLEAR     74  65  73 SE8       29.99S
BRANSON        CLEAR     72  64  78 CALM      30.01F
JOPLIN         CLEAR     77  66  68 SE9       29.96S
WEST PLAINS    CLEAR     66  63  90 CALM      30.04S

$$

IAZ060-094-KSZ022-034>040-054-083-096-NEZ052-066-093-240700-
...KANSAS...SOUTHEAST NEBRASKA AND IOWA...

CITY           SKY/WX    TMP DP  RH WIND       PRES   REMARKS
TOPEKA         CLEAR     69  66  90 CALM      29.93R
6HR MIN TEMP:  69; 6HR MAX TEMP:  84;

MANHATTAN      CLEAR     75  64  68 S7        29.90S
EMPORIA        CLEAR     73  63  70 SE10      29.92F
CHANUTE        CLEAR     72  65  78 SE7       29.94S
WICHITA        PTCLDY    75  66  73 SE9       29.90S
OMAHA          MOCLDY    76  65  68 S12       29.91R
LINCOLN        MOCLDY    76  63  64 S12       29.89S
FALLS CITY     CLEAR     71  66  84 SE7       29.92S
LAMONI         CLEAR     74  65  73 SE6       29.98R
DES MOINES     PTCLDY    74  65  73 SE8       29.96R

$$





USA.gov is the U.S. government's official web portal to all federal, state and local government web resources and services.